Location: Kalberh�ni
(46.4610°N, 7.2453°E)
Time: 00:12:43
(UTC+00:00)

Cosmos 1674 - Pass Details

Date: 20 June 2021
Orbit: 494 x 515 km, 82.5° (Epoch: 25 July)

Event Time Altitude Azimuth Distance (km) Brightness Sun altitude
Rises 20:40:59 0° 197° (SSW) 2,573 5.9 -10.0°
Reaches altitude 10° 20:43:07 10° 202° (SSW) 1,693 5.0 -10.3°
Maximum altitude 20:46:45 56° 281° (W) 596 3.3 -10.7°
Drops below altitude 10° 20:50:26 10° 1° (N) 1,702 6.1 -11.0°
Sets 20:52:35 0° 6° (N) 2,590 7.0 -11.3°
